| time (UTC) | temp F | wind direction | speed MPH | gust MPH | rain 1hr in | rain 24hr in | rain mn in | humidity % | barometer mb |
| 20260509061554 | 48 | 124 | 0.0 | 0.0 | 0.00 | 0.02 | 0.01 | 92 | 1013.9 |
| 20260509060043 | 48 | 124 | 0.0 | 0.0 | 0.00 | 0.02 | 0.01 | 92 | 1014.2 |
| 20260509054540 | 48 | 124 | 0.0 | 0.0 | 0.01 | 0.03 | 0.01 | 91 | 1014.3 |
| 20260509053034 | 48 | 124 | 0.0 | 0.0 | 0.01 | 0.03 | 0.01 | 91 | 1014.5 |
| 20260509051530 | 48 | 124 | 0.0 | 0.0 | 0.01 | 0.03 | 0.01 | 91 | 1014.7 |
| 20260509050035 | 48 | 124 | 0.0 | 0.0 | 0.01 | 0.03 | 0.01 | 90 | 1014.4 |
| 20260509044522 | 48 | 124 | 0.0 | 0.0 | 0.00 | 0.02 | 0.00 | 89 | 1014.4 |
| 20260509043037 | 48 | 124 | 0.0 | 0.0 | 0.00 | 0.02 | 0.00 | 88 | 1014.6 |
| 20260509041520 | 48 | 124 | 0.0 | 0.0 | 0.00 | 0.02 | 0.00 | 88 | 1014.6 |
| 20260509040015 | 48 | 124 | 0.0 | 0.0 | 0.00 | 0.02 | 0.00 | 88 | 1014.7 |
| 20260509034515 | 48 | 124 | 0.0 | 0.0 | 0.00 | 0.02 | 0.02 | 88 | 1014.7 |
| 20260509033014 | 48 | 124 | 0.0 | 0.0 | 0.00 | 0.02 | 0.02 | 87 | 1014.6 |
| 20260509031517 | 48 | 124 | 0.0 | 0.0 | 0.00 | 0.02 | 0.02 | 87 | 1014.7 |
| 20260509030012 | 48 | 124 | 0.0 | 0.0 | 0.00 | 0.02 | 0.02 | 86 | 1014.9 |
| 20260509024512 | 48 | 124 | 0.0 | 0.0 | 0.00 | 0.02 | 0.02 | 86 | 1014.9 |
| 20260509023019 | 48 | 124 | 0.0 | 0.0 | 0.00 | 0.02 | 0.02 | 86 | 1014.8 |
| 20260509021517 | 49 | 124 | 0.0 | 0.0 | 0.00 | 0.02 | 0.02 | 85 | 1014.7 |
| 20260509020008 | 49 | 124 | 0.0 | 0.0 | 0.00 | 0.02 | 0.02 | 85 | 1014.5 |
| 20260509014506 | 49 | 124 | 0.0 | 0.0 | 0.00 | 0.02 | 0.02 | 84 | 1014.1 |
| 20260509013018 | 50 | 124 | 0.0 | 0.0 | 0.00 | 0.02 | 0.02 | 82 | 1014.0 |
| 20260509011508 | 50 | 124 | 0.0 | 0.0 | 0.00 | 0.02 | 0.02 | 81 | 1013.6 |
| 20260509010005 | 50 | 124 | 0.0 | 0.0 | 0.00 | 0.02 | 0.02 | 81 | 1013.4 |
| 20260509004514 | 51 | 124 | 0.0 | 0.0 | 0.00 | 0.02 | 0.02 | 80 | 1013.2 |
| 20260509003004 | 51 | 124 | 0.0 | 0.0 | 0.00 | 0.02 | 0.02 | 80 | 1013.0 |
| 20260509001504 | 51 | 124 | 0.0 | 0.0 | 0.00 | 0.02 | 0.02 | 78 | 1012.9 |
| 20260509000003 | 52 | 124 | 0.0 | 0.0 | 0.00 | 0.02 | 0.02 | 77 | 1012.9 |
| 20260508234502 | 52 | 124 | 0.0 | 0.0 | 0.00 | 0.02 | 0.02 | 76 | 1013.0 |
| 20260508233002 | 53 | 124 | 0.0 | 0.0 | 0.00 | 0.02 | 0.02 | 74 | 1013.0 |
| 20260508231502 | 53 | 124 | 0.0 | 0.0 | 0.00 | 0.02 | 0.02 | 73 | 1012.9 |
| 20260508230002 | 53 | 124 | 0.0 | 0.0 | 0.00 | 0.02 | 0.02 | 72 | 1012.8 |
| 20260508224600 | 55 | 124 | 0.0 | 1.0 | 0.00 | 0.02 | 0.02 | 70 | 1012.6 |
| 20260508223100 | 55 | 122 | 0.0 | 0.0 | 0.00 | 0.02 | 0.02 | 70 | 1012.8 |
| 20260508221600 | 55 | 122 | 0.0 | 0.0 | 0.00 | 0.02 | 0.02 | 70 | 1012.9 |
| 20260508220109 | 55 | 122 | 0.0 | 1.0 | 0.00 | 0.02 | 0.02 | 70 | 1012.8 |
| 20260508214601 | 55 | 122 | 0.0 | 1.0 | 0.00 | 0.02 | 0.02 | 72 | 1012.8 |
| 20260508213058 | 55 | 172 | 0.0 | 0.0 | 0.00 | 0.02 | 0.02 | 73 | 1012.8 |
| 20260508211601 | 54 | 134 | 0.0 | 1.0 | 0.00 | 0.02 | 0.02 | 75 | 1012.8 |
| 20260508210116 | 54 | 134 | 0.0 | 1.0 | 0.00 | 0.02 | 0.02 | 78 | 1012.8 |
| 20260508204558 | 54 | 135 | 0.0 | 1.0 | 0.00 | 0.02 | 0.02 | 80 | 1013.1 |
| 20260508203057 | 54 | 135 | 0.0 | 1.0 | 0.00 | 0.02 | 0.02 | 78 | 1013.1 |
| 20260508201556 | 56 | 136 | 0.0 | 1.0 | 0.00 | 0.02 | 0.02 | 69 | 1013.0 |
| 20260508200058 | 57 | 122 | 0.0 | 1.0 | 0.00 | 0.02 | 0.02 | 61 | 1012.8 |
| 20260508194555 | 58 | 122 | 0.0 | 1.0 | 0.00 | 0.02 | 0.02 | 59 | 1012.7 |
| 20260508193102 | 59 | 109 | 0.0 | 3.0 | 0.00 | 0.02 | 0.02 | 56 | 1012.6 |
| 20260508191553 | 58 | 194 | 0.0 | 4.0 | 0.00 | 0.02 | 0.02 | 53 | 1012.6 |
| 20260508184615 | 57 | 131 | 0.0 | 5.0 | 0.00 | 0.02 | 0.02 | 56 | 1012.9 |
| 20260508183051 | 57 | 148 | 0.0 | 4.0 | 0.00 | 0.02 | 0.02 | 52 | 1012.9 |
| 20260508181604 | 57 | 134 | 0.0 | 3.0 | 0.00 | 0.02 | 0.02 | 51 | 1013.0 |
| 20260508180050 | 59 | 169 | 0.0 | 5.0 | 0.00 | 0.02 | 0.02 | 52 | 1012.7 |
| 20260508174549 | 60 | 207 | 0.0 | 8.0 | 0.00 | 0.02 | 0.02 | 48 | 1012.8 |
| 20260508173050 | 60 | 123 | 2.0 | 8.0 | 0.00 | 0.02 | 0.02 | 50 | 1012.8 |
| 20260508171549 | 58 | 194 | 1.0 | 5.0 | 0.00 | 0.02 | 0.02 | 51 | 1013.1 |
| 20260508170048 | 59 | 128 | 2.0 | 8.0 | 0.00 | 0.02 | 0.02 | 48 | 1012.9 |
| 20260508164558 | 59 | 103 | 1.0 | 5.0 | 0.00 | 0.02 | 0.02 | 51 | 1012.9 |
| 20260508163047 | 59 | 147 | 2.0 | 8.0 | 0.00 | 0.02 | 0.02 | 51 | 1013.3 |
| 20260508161550 | 60 | 115 | 2.0 | 5.0 | 0.00 | 0.02 | 0.02 | 49 | 1013.5 |
| 20260508160042 | 58 | 194 | 1.0 | 7.0 | 0.00 | 0.02 | 0.02 | 54 | 1013.6 |
| 20260508154544 | 57 | 176 | 2.0 | 6.0 | 0.00 | 0.02 | 0.02 | 53 | 1013.9 |
| 20260508153042 | 55 | 117 | 1.0 | 3.0 | 0.00 | 0.02 | 0.02 | 54 | 1014.0 |
| 20260508151544 | 55 | 170 | 0.0 | 7.0 | 0.00 | 0.02 | 0.02 | 53 | 1014.1 |
| 20260508150045 | 58 | 194 | 1.0 | 5.0 | 0.00 | 0.02 | 0.02 | 52 | 1013.9 |
| 20260508144555 | 58 | 172 | 0.0 | 5.0 | 0.00 | 0.02 | 0.02 | 55 | 1013.7 |
| 20260508143036 | 57 | 138 | 0.0 | 3.0 | 0.00 | 0.02 | 0.02 | 57 | 1013.7 |
| 20260508141534 | 56 | 136 | 0.0 | 2.0 | 0.00 | 0.02 | 0.02 | 57 | 1013.8 |
| 20260508140034 | 56 | 194 | 0.0 | 4.0 | 0.00 | 0.02 | 0.02 | 55 | 1013.9 |
| 20260508134537 | 55 | 134 | 0.0 | 3.0 | 0.00 | 0.02 | 0.02 | 59 | 1014.0 |
| 20260508133031 | 53 | 117 | 0.0 | 4.0 | 0.00 | 0.02 | 0.02 | 63 | 1014.2 |
| 20260508131522 | 52 | 138 | 0.0 | 5.0 | 0.00 | 0.02 | 0.02 | 69 | 1014.2 |
| 20260508130019 | 52 | 140 | 0.0 | 1.0 | 0.00 | 0.02 | 0.02 | 69 | 1014.1 |
| 20260508124516 | 51 | 127 | 0.0 | 1.0 | 0.00 | 0.02 | 0.02 | 73 | 1014.2 |
| 20260508123012 | 50 | 137 | 0.0 | 1.0 | 0.00 | 0.02 | 0.02 | 76 | 1014.2 |
| 20260508121509 | 48 | 99 | 0.0 | 1.0 | 0.00 | 0.02 | 0.02 | 82 | 1014.1 |
| 20260508120007 | 46 | 124 | 0.0 | 2.0 | 0.00 | 0.02 | 0.02 | 85 | 1014.1 |
| 20260508114508 | 45 | 194 | 0.0 | 1.0 | 0.00 | 0.02 | 0.02 | 92 | 1014.2 |
| 20260508113005 | 43 | 194 | 0.0 | 0.0 | 0.00 | 0.02 | 0.02 | 94 | 1014.0 |
| 20260508111505 | 41 | 194 | 0.0 | 0.0 | 0.00 | 0.02 | 0.02 | 94 | 1013.9 |
| 20260508110001 | 40 | 194 | 0.0 | 0.0 | 0.00 | 0.02 | 0.02 | 93 | 1013.8 |
| 20260508104602 | 39 | 194 | 0.0 | 0.0 | 0.00 | 0.02 | 0.02 | 93 | 1013.7 |
| 20260508103102 | 39 | 194 | 0.0 | 0.0 | 0.00 | 0.02 | 0.02 | 92 | 1013.7 |
| 20260508101614 | 39 | 194 | 0.0 | 0.0 | 0.00 | 0.02 | 0.02 | 92 | 1013.4 |
| 20260508100054 | 39 | 194 | 0.0 | 0.0 | 0.00 | 0.02 | 0.02 | 92 | 1013.1 |
| 20260508094552 | 40 | 194 | 0.0 | 0.0 | 0.00 | 0.02 | 0.02 | 92 | 1012.9 |
| 20260508093051 | 40 | 194 | 0.0 | 0.0 | 0.00 | 0.02 | 0.02 | 91 | 1013.0 |
| 20260508091558 | 41 | 194 | 0.0 | 0.0 | 0.00 | 0.02 | 0.02 | 91 | 1013.0 |
| 20260508090100 | 41 | 194 | 0.0 | 0.0 | 0.00 | 0.02 | 0.02 | 91 | 1013.0 |
| 20260508084543 | 42 | 194 | 0.0 | 0.0 | 0.00 | 0.03 | 0.02 | 91 | 1012.9 |
| 20260508083042 | 42 | 194 | 0.0 | 0.0 | 0.00 | 0.03 | 0.02 | 91 | 1012.6 |
| 20260508081542 | 42 | 194 | 0.0 | 0.0 | 0.00 | 0.03 | 0.02 | 91 | 1012.7 |
| 20260508080047 | 43 | 194 | 0.0 | 0.0 | 0.00 | 0.03 | 0.02 | 90 | 1012.5 |
| 20260508074543 | 44 | 194 | 0.0 | 0.0 | 0.00 | 0.04 | 0.02 | 91 | 1012.8 |
| 20260508073042 | 43 | 194 | 0.0 | 0.0 | 0.00 | 0.04 | 0.02 | 91 | 1012.9 |
| 20260508071547 | 43 | 194 | 0.0 | 0.0 | 0.00 | 0.04 | 0.02 | 91 | 1012.7 |
| 20260508070036 | 44 | 194 | 0.0 | 0.0 | 0.01 | 0.04 | 0.02 | 91 | 1012.6 |
| 20260508064538 | 44 | 194 | 0.0 | 0.0 | 0.01 | 0.10 | 0.02 | 90 | 1012.6 |
| 20260508063033 | 44 | 194 | 0.0 | 0.0 | 0.02 | 0.10 | 0.02 | 90 | 1012.7 |